| time (UTC) | temp F | wind direction | speed MPH | gust MPH | rain 1hr in | rain 24hr in | rain mn in | humidity % | barometer mb |
| 20260506062218 | 47 | 17 | 1.0 | 2.0 | 0.00 | 0.00 | 0.00 | 83 | 1015.0 |
| 20260506061714 | 47 | 6 | 4.0 | 4.0 | 0.00 | 0.00 | 0.00 | 82 | 1014.8 |
| 20260506061212 | 47 | 26 | 0.0 | 0.0 | 0.00 | 0.00 | 0.00 | 83 | 1014.7 |
| 20260506060711 | 47 | 18 | 1.0 | 2.0 | 0.00 | 0.00 | 0.00 | 83 | 1014.7 |
| 20260506060207 | 47 | 49 | 1.0 | 2.0 | 0.00 | 0.00 | 0.00 | 82 | 1014.8 |
| 20260506051139 | 48 | 35 | 6.0 | 7.0 | 0.00 | 0.00 | 0.00 | 81 | 1014.7 |
| 20260506050637 | 48 | 8 | 3.0 | 4.0 | 0.00 | 0.00 | 0.00 | 81 | 1014.6 |
| 20260506050134 | 48 | 13 | 1.0 | 2.0 | 0.00 | 0.00 | 0.00 | 80 | 1014.4 |
| 20260506045127 | 48 | 16 | 4.0 | 6.0 | 0.00 | 0.00 | 0.00 | 80 | 1014.6 |
| 20260506044625 | 48 | 23 | 1.0 | 3.0 | 0.00 | 0.00 | 0.00 | 79 | 1014.6 |
| 20260506044122 | 48 | 32 | 4.0 | 4.0 | 0.00 | 0.00 | 0.00 | 80 | 1014.7 |
| 20260506043619 | 48 | 92 | 2.0 | 3.0 | 0.00 | 0.00 | 0.00 | 80 | 1014.4 |
| 20260506043117 | 48 | 353 | 4.0 | 6.0 | 0.00 | 0.00 | 0.00 | 79 | 1014.2 |
| 20260506042616 | 48 | 19 | 3.0 | 4.0 | 0.00 | 0.00 | 0.00 | 80 | 1014.4 |
| 20260506042113 | 48 | 13 | 2.0 | 3.0 | 0.00 | 0.00 | 0.00 | 81 | 1013.9 |
| 20260506041612 | 48 | 27 | 2.0 | 2.0 | 0.00 | 0.00 | 0.00 | 80 | 1013.9 |
| 20260506041108 | 48 | 56 | 2.0 | 3.0 | 0.00 | 0.00 | 0.00 | 80 | 1013.5 |
| 20260506040606 | 48 | 5 | 2.0 | 2.0 | 0.00 | 0.00 | 0.00 | 81 | 1013.5 |
| 20260506035559 | 48 | 30 | 4.0 | 6.0 | 0.00 | 0.39 | 0.39 | 81 | 1013.8 |
| 20260506035056 | 48 | 22 | 5.0 | 8.0 | 0.00 | 0.39 | 0.39 | 82 | 1013.9 |
| 20260506034553 | 47 | 10 | 5.0 | 8.0 | 0.00 | 0.39 | 0.39 | 83 | 1013.7 |
| 20260506034050 | 48 | 358 | 2.0 | 3.0 | 0.00 | 0.39 | 0.39 | 83 | 1013.8 |
| 20260506033547 | 47 | 3 | 2.0 | 2.0 | 0.00 | 0.39 | 0.39 | 84 | 1013.2 |
| 20260506033044 | 47 | 16 | 3.0 | 3.0 | 0.00 | 0.39 | 0.39 | 84 | 1013.3 |
| 20260506032541 | 47 | 30 | 2.0 | 3.0 | 0.00 | 0.39 | 0.39 | 84 | 1013.2 |
| 20260506032038 | 48 | 37 | 3.0 | 4.0 | 0.00 | 0.39 | 0.39 | 84 | 1013.0 |
| 20260506031536 | 47 | 328 | 3.0 | 4.0 | 0.00 | 0.39 | 0.39 | 85 | 1013.0 |
| 20260506031032 | 47 | 5 | 4.0 | 6.0 | 0.00 | 0.39 | 0.39 | 86 | 1012.9 |
| 20260506030531 | 47 | 359 | 4.0 | 6.0 | 0.00 | 0.39 | 0.39 | 87 | 1013.0 |
| 20260506030028 | 47 | 5 | 3.0 | 4.0 | 0.00 | 0.39 | 0.39 | 88 | 1012.9 |
| 20260506025525 | 47 | 31 | 7.0 | 10.0 | 0.00 | 0.39 | 0.39 | 88 | 1012.9 |
| 20260506025021 | 47 | 32 | 3.0 | 4.0 | 0.00 | 0.39 | 0.39 | 88 | 1012.8 |
| 20260506024518 | 47 | 36 | 4.0 | 7.0 | 0.00 | 0.39 | 0.39 | 87 | 1013.0 |
| 20260506024014 | 47 | 350 | 6.0 | 7.0 | 0.00 | 0.39 | 0.39 | 87 | 1013.0 |
| 20260506023510 | 47 | 5 | 6.0 | 7.0 | 0.00 | 0.39 | 0.39 | 87 | 1012.8 |
| 20260506023008 | 47 | 12 | 4.0 | 4.0 | 0.00 | 0.39 | 0.39 | 87 | 1013.0 |
| 20260506022505 | 47 | 16 | 7.0 | 13.0 | 0.00 | 0.39 | 0.39 | 88 | 1012.7 |
| 20260506022002 | 47 | 347 | 2.0 | 3.0 | 0.00 | 0.39 | 0.39 | 88 | 1012.5 |
| 20260506021500 | 47 | 26 | 4.0 | 7.0 | 0.00 | 0.39 | 0.39 | 88 | 1012.4 |
| 20260506020957 | 47 | 36 | 4.0 | 4.0 | 0.00 | 0.39 | 0.39 | 88 | 1012.4 |
| 20260506020454 | 47 | 22 | 6.0 | 7.0 | 0.00 | 0.39 | 0.39 | 88 | 1012.2 |
| 20260506015951 | 47 | 6 | 5.0 | 6.0 | 0.00 | 0.39 | 0.39 | 88 | 1012.1 |
| 20260506015449 | 47 | 20 | 2.0 | 3.0 | 0.00 | 0.39 | 0.39 | 88 | 1012.1 |
| 20260506014946 | 47 | 12 | 5.0 | 6.0 | 0.00 | 0.39 | 0.39 | 89 | 1012.1 |
| 20260506014443 | 47 | 18 | 9.0 | 13.0 | 0.00 | 0.39 | 0.39 | 90 | 1012.0 |
| 20260506013939 | 47 | 283 | 2.0 | 2.0 | 0.00 | 0.39 | 0.39 | 90 | 1011.9 |
| 20260506013437 | 47 | 19 | 3.0 | 4.0 | 0.00 | 0.39 | 0.39 | 90 | 1012.0 |
| 20260506012933 | 47 | 28 | 2.0 | 3.0 | 0.00 | 0.39 | 0.39 | 90 | 1012.0 |
| 20260506012430 | 47 | 5 | 2.0 | 3.0 | 0.00 | 0.39 | 0.39 | 90 | 1011.8 |
| 20260506011927 | 47 | 13 | 2.0 | 3.0 | 0.00 | 0.39 | 0.39 | 90 | 1011.8 |
| 20260506011424 | 47 | 25 | 4.0 | 6.0 | 0.00 | 0.39 | 0.39 | 89 | 1011.6 |
| 20260506010921 | 47 | 33 | 3.0 | 3.0 | 0.00 | 0.39 | 0.39 | 89 | 1012.0 |
| 20260506010420 | 47 | 36 | 4.0 | 4.0 | 0.00 | 0.39 | 0.39 | 89 | 1011.7 |
| 20260506005915 | 47 | 24 | 4.0 | 4.0 | 0.00 | 0.39 | 0.39 | 89 | 1011.6 |
| 20260506005414 | 47 | 354 | 3.0 | 4.0 | 0.00 | 0.39 | 0.39 | 88 | 1011.9 |
| 20260506004908 | 47 | 28 | 4.0 | 6.0 | 0.00 | 0.39 | 0.39 | 88 | 1011.6 |
| 20260506004407 | 47 | 10 | 5.0 | 7.0 | 0.00 | 0.39 | 0.39 | 88 | 1011.6 |
| 20260506003902 | 47 | 30 | 6.0 | 9.0 | 0.00 | 0.39 | 0.39 | 88 | 1011.7 |
| 20260506003359 | 47 | 20 | 4.0 | 7.0 | 0.00 | 0.39 | 0.39 | 88 | 1011.5 |
| 20260506002855 | 47 | 63 | 3.0 | 3.0 | 0.00 | 0.39 | 0.39 | 88 | 1011.5 |
| 20260506002351 | 47 | 340 | 4.0 | 6.0 | 0.00 | 0.39 | 0.39 | 87 | 1011.4 |
| 20260506001848 | 47 | 343 | 5.0 | 8.0 | 0.00 | 0.39 | 0.39 | 87 | 1011.4 |
| 20260506001344 | 47 | 1 | 4.0 | 4.0 | 0.00 | 0.39 | 0.39 | 88 | 1011.5 |
| 20260506000841 | 47 | 29 | 3.0 | 3.0 | 0.00 | 0.39 | 0.39 | 88 | 1011.3 |
| 20260506000340 | 47 | 33 | 4.0 | 6.0 | 0.00 | 0.39 | 0.39 | 88 | 1011.4 |
| 20260505235836 | 47 | 35 | 6.0 | 7.0 | 0.00 | 0.39 | 0.39 | 87 | 1011.1 |
| 20260505235333 | 47 | 34 | 7.0 | 10.0 | 0.00 | 0.39 | 0.39 | 88 | 1011.3 |
| 20260505234830 | 47 | 21 | 3.0 | 4.0 | 0.00 | 0.39 | 0.39 | 88 | 1011.5 |
| 20260505234328 | 47 | 47 | 6.0 | 8.0 | 0.00 | 0.39 | 0.39 | 87 | 1011.4 |
| 20260505233825 | 47 | 49 | 7.0 | 9.0 | 0.00 | 0.39 | 0.39 | 86 | 1011.1 |
| 20260505233323 | 48 | 10 | 6.0 | 7.0 | 0.00 | 0.39 | 0.39 | 85 | 1011.0 |
| 20260505232820 | 48 | 12 | 7.0 | 9.0 | 0.00 | 0.39 | 0.39 | 83 | 1010.7 |
| 20260505232317 | 48 | 33 | 4.0 | 8.0 | 0.00 | 0.39 | 0.39 | 81 | 1010.9 |
| 20260505231814 | 49 | 352 | 5.0 | 7.0 | 0.00 | 0.39 | 0.39 | 80 | 1010.9 |
| 20260505231312 | 49 | 16 | 7.0 | 10.0 | 0.00 | 0.39 | 0.39 | 79 | 1010.6 |
| 20260505230810 | 49 | 27 | 2.0 | 3.0 | 0.00 | 0.39 | 0.39 | 78 | 1010.7 |
| 20260505230307 | 49 | 349 | 8.0 | 10.0 | 0.00 | 0.39 | 0.39 | 78 | 1010.6 |
| 20260505225803 | 49 | 6 | 2.0 | 4.0 | 0.00 | 0.39 | 0.39 | 78 | 1010.3 |
| 20260505225300 | 49 | 10 | 4.0 | 7.0 | 0.00 | 0.39 | 0.39 | 78 | 1010.4 |
| 20260505224755 | 49 | 12 | 3.0 | 3.0 | 0.00 | 0.39 | 0.39 | 77 | 1010.5 |
| 20260505224253 | 49 | 23 | 4.0 | 7.0 | 0.00 | 0.39 | 0.39 | 77 | 1010.3 |
| 20260505223751 | 49 | 28 | 7.0 | 9.0 | 0.00 | 0.39 | 0.39 | 76 | 1010.4 |
| 20260505223247 | 49 | 351 | 4.0 | 6.0 | 0.00 | 0.39 | 0.39 | 76 | 1010.4 |
| 20260505222743 | 49 | 27 | 5.0 | 7.0 | 0.00 | 0.39 | 0.39 | 77 | 1010.3 |
| 20260505222239 | 49 | 40 | 9.0 | 10.0 | 0.00 | 0.39 | 0.39 | 77 | 1010.2 |
| 20260505221736 | 49 | 319 | 8.0 | 11.0 | 0.00 | 0.39 | 0.39 | 77 | 1010.3 |
| 20260505221233 | 49 | 347 | 5.0 | 6.0 | 0.00 | 0.39 | 0.39 | 77 | 1010.0 |
| 20260505220730 | 50 | 28 | 8.0 | 11.0 | 0.00 | 0.39 | 0.39 | 76 | 1010.1 |
| 20260505220227 | 50 | 28 | 2.0 | 2.0 | 0.00 | 0.39 | 0.39 | 75 | 1010.1 |
| 20260505215725 | 50 | 18 | 8.0 | 10.0 | 0.00 | 0.39 | 0.39 | 75 | 1010.1 |
| 20260505215223 | 50 | 11 | 10.0 | 11.0 | 0.00 | 0.39 | 0.39 | 75 | 1010.2 |
| 20260505214720 | 50 | 343 | 8.0 | 10.0 | 0.00 | 0.39 | 0.39 | 75 | 1010.2 |
| 20260505214218 | 50 | 16 | 8.0 | 10.0 | 0.00 | 0.39 | 0.39 | 74 | 1009.8 |
| 20260505213715 | 50 | 59 | 3.0 | 6.0 | 0.00 | 0.39 | 0.39 | 74 | 1010.3 |
| 20260505213212 | 50 | 23 | 8.0 | 10.0 | 0.00 | 0.39 | 0.39 | 74 | 1010.0 |
| 20260505212708 | 50 | 357 | 8.0 | 14.0 | 0.00 | 0.39 | 0.39 | 75 | 1010.1 |
| 20260505212206 | 50 | 46 | 6.0 | 8.0 | 0.00 | 0.39 | 0.39 | 76 | 1010.1 |
| 20260505211702 | 50 | 31 | 6.0 | 8.0 | 0.00 | 0.39 | 0.39 | 76 | 1010.2 |
| 20260505211200 | 50 | 1 | 7.0 | 11.0 | 0.00 | 0.39 | 0.39 | 76 | 1010.2 |
| 20260505210656 | 50 | 24 | 5.0 | 6.0 | 0.00 | 0.39 | 0.39 | 76 | 1010.5 |
| 20260505210153 | 50 | 0 | 10.0 | 14.0 | 0.00 | 0.39 | 0.39 | 75 | 1010.3 |
| 20260505205650 | 50 | 10 | 13.0 | 16.0 | 0.00 | 0.39 | 0.39 | 75 | 1010.3 |
| 20260505205148 | 50 | 50 | 5.0 | 7.0 | 0.00 | 0.39 | 0.39 | 74 | 1010.3 |
| 20260505204645 | 50 | 32 | 10.0 | 13.0 | 0.00 | 0.39 | 0.39 | 73 | 1010.2 |
| 20260505204143 | 50 | 25 | 12.0 | 15.0 | 0.00 | 0.39 | 0.39 | 73 | 1010.1 |
| 20260505203640 | 51 | 32 | 8.0 | 10.0 | 0.00 | 0.39 | 0.39 | 72 | 1010.2 |
| 20260505203136 | 51 | 14 | 4.0 | 6.0 | 0.00 | 0.39 | 0.39 | 71 | 1010.1 |
| 20260505202632 | 51 | 11 | 2.0 | 6.0 | 0.00 | 0.39 | 0.39 | 69 | 1010.2 |
| 20260505202128 | 51 | 17 | 10.0 | 13.0 | 0.00 | 0.39 | 0.39 | 71 | 1010.2 |
| 20260505201625 | 51 | 43 | 6.0 | 8.0 | 0.00 | 0.39 | 0.39 | 71 | 1010.1 |
| 20260505201123 | 51 | 38 | 12.0 | 16.0 | 0.00 | 0.39 | 0.39 | 69 | 1010.0 |
| 20260505200621 | 51 | 88 | 10.0 | 14.0 | 0.00 | 0.39 | 0.39 | 72 | 1010.0 |
| 20260505200118 | 51 | 16 | 9.0 | 10.0 | 0.00 | 0.39 | 0.39 | 73 | 1010.2 |
| 20260505195614 | 52 | 26 | 6.0 | 8.0 | 0.00 | 0.39 | 0.39 | 73 | 1010.0 |
| 20260505195111 | 52 | 338 | 7.0 | 10.0 | 0.00 | 0.39 | 0.39 | 70 | 1010.0 |
| 20260505194608 | 52 | 26 | 7.0 | 9.0 | 0.00 | 0.39 | 0.39 | 70 | 1010.0 |
| 20260505194103 | 52 | 21 | 6.0 | 9.0 | 0.00 | 0.39 | 0.39 | 70 | 1010.0 |
| 20260505193601 | 52 | 306 | 10.0 | 14.0 | 0.00 | 0.39 | 0.39 | 69 | 1010.0 |
| 20260505193058 | 52 | 14 | 6.0 | 7.0 | 0.00 | 0.39 | 0.39 | 69 | 1010.0 |
| 20260505192557 | 52 | 28 | 8.0 | 9.0 | 0.00 | 0.39 | 0.39 | 69 | 1010.0 |
| 20260505192054 | 52 | 2 | 12.0 | 15.0 | 0.00 | 0.39 | 0.39 | 69 | 1009.5 |
| 20260505191552 | 52 | 17 | 10.0 | 14.0 | 0.00 | 0.39 | 0.39 | 69 | 1009.8 |
| 20260505191049 | 52 | 57 | 5.0 | 9.0 | 0.00 | 0.39 | 0.39 | 71 | 1009.6 |
| 20260505190544 | 52 | 40 | 12.0 | 17.0 | 0.00 | 0.39 | 0.39 | 70 | 1009.7 |
| 20260505190040 | 52 | 332 | 7.0 | 11.0 | 0.00 | 0.39 | 0.39 | 72 | 1009.7 |
| 20260505185537 | 52 | 351 | 6.0 | 8.0 | 0.00 | 0.39 | 0.39 | 74 | 1009.6 |
| 20260505185033 | 51 | 10 | 8.0 | 13.0 | 0.00 | 0.39 | 0.39 | 74 | 1009.7 |
| 20260505184530 | 52 | 46 | 3.0 | 4.0 | 0.00 | 0.39 | 0.39 | 76 | 1009.8 |
| 20260505184027 | 51 | 27 | 9.0 | 15.0 | 0.00 | 0.39 | 0.39 | 76 | 1009.5 |
| 20260505183524 | 52 | 1 | 15.0 | 24.0 | 0.00 | 0.39 | 0.39 | 76 | 1009.8 |
| 20260505183021 | 52 | 348 | 12.0 | 17.0 | 0.00 | 0.39 | 0.39 | 76 | 1009.8 |
| 20260505182517 | 52 | 31 | 11.0 | 14.0 | 0.00 | 0.39 | 0.39 | 76 | 1009.7 |
| 20260505182014 | 52 | 14 | 7.0 | 9.0 | 0.00 | 0.39 | 0.39 | 77 | 1009.8 |
| 20260505181511 | 52 | 4 | 7.0 | 10.0 | 0.00 | 0.39 | 0.39 | 78 | 1009.6 |
| 20260505181008 | 52 | 16 | 5.0 | 6.0 | 0.00 | 0.39 | 0.39 | 79 | 1009.6 |
| 20260505180504 | 52 | 0 | 7.0 | 9.0 | 0.00 | 0.39 | 0.39 | 80 | 1009.4 |
| 20260505180001 | 52 | 13 | 4.0 | 6.0 | 0.00 | 0.39 | 0.39 | 80 | 1009.5 |
| 20260505175457 | 52 | 23 | 5.0 | 9.0 | 0.00 | 0.39 | 0.39 | 79 | 1009.5 |
| 20260505174954 | 53 | 34 | 7.0 | 9.0 | 0.00 | 0.39 | 0.39 | 79 | 1009.5 |
| 20260505174451 | 53 | 356 | 6.0 | 8.0 | 0.00 | 0.39 | 0.39 | 79 | 1009.3 |
| 20260505173947 | 53 | 69 | 11.0 | 13.0 | 0.00 | 0.39 | 0.39 | 78 | 1009.2 |
| 20260505173443 | 53 | 23 | 7.0 | 11.0 | 0.00 | 0.39 | 0.39 | 79 | 1009.4 |
| 20260505172940 | 53 | 76 | 4.0 | 7.0 | 0.00 | 0.39 | 0.39 | 79 | 1009.0 |
| 20260505172439 | 53 | 90 | 6.0 | 11.0 | 0.00 | 0.39 | 0.39 | 80 | 1008.9 |
| 20260505171938 | 53 | 14 | 5.0 | 9.0 | 0.00 | 0.39 | 0.39 | 80 | 1008.9 |
| 20260505171435 | 53 | 29 | 3.0 | 3.0 | 0.00 | 0.39 | 0.39 | 80 | 1008.7 |
| 20260505170932 | 53 | 32 | 8.0 | 14.0 | 0.00 | 0.39 | 0.39 | 80 | 1008.9 |
| 20260505170428 | 53 | 16 | 4.0 | 7.0 | 0.00 | 0.39 | 0.39 | 80 | 1008.9 |
| 20260505165924 | 53 | 25 | 7.0 | 10.0 | 0.00 | 0.39 | 0.39 | 80 | 1009.0 |
| 20260505165420 | 53 | 19 | 7.0 | 13.0 | 0.00 | 0.39 | 0.39 | 80 | 1008.8 |
| 20260505164915 | 53 | 354 | 3.0 | 4.0 | 0.00 | 0.39 | 0.39 | 80 | 1009.0 |
| 20260505164413 | 53 | 350 | 8.0 | 10.0 | 0.00 | 0.39 | 0.39 | 80 | 1009.0 |
| 20260505163910 | 53 | 42 | 4.0 | 6.0 | 0.00 | 0.39 | 0.39 | 80 | 1009.3 |
| 20260505163409 | 53 | 34 | 5.0 | 6.0 | 0.00 | 0.39 | 0.39 | 80 | 1009.3 |
| 20260505162908 | 54 | 1 | 6.0 | 10.0 | 0.00 | 0.39 | 0.39 | 81 | 1009.1 |
| 20260505162403 | 54 | 28 | 9.0 | 11.0 | 0.00 | 0.39 | 0.39 | 80 | 1008.9 |
| 20260505161900 | 54 | 302 | 5.0 | 9.0 | 0.00 | 0.39 | 0.39 | 81 | 1009.0 |
| 20260505161357 | 54 | 16 | 6.0 | 8.0 | 0.00 | 0.39 | 0.39 | 80 | 1009.0 |
| 20260505160854 | 54 | 341 | 5.0 | 8.0 | 0.00 | 0.39 | 0.39 | 80 | 1008.8 |
| 20260505160353 | 54 | 25 | 5.0 | 7.0 | 0.00 | 0.39 | 0.39 | 81 | 1008.8 |
| 20260505153331 | 53 | 28 | 8.0 | 15.0 | 0.00 | 0.39 | 0.39 | 85 | 1008.7 |
| 20260505152828 | 53 | 359 | 6.0 | 8.0 | 0.00 | 0.39 | 0.39 | 86 | 1009.0 |
| 20260505152325 | 53 | 33 | 6.0 | 11.0 | 0.00 | 0.39 | 0.39 | 87 | 1008.7 |
| 20260505151820 | 53 | 6 | 6.0 | 8.0 | 0.00 | 0.39 | 0.39 | 87 | 1009.0 |
| 20260505151317 | 53 | 42 | 7.0 | 10.0 | 0.00 | 0.39 | 0.39 | 88 | 1009.2 |
| 20260505150814 | 53 | 29 | 10.0 | 13.0 | 0.00 | 0.39 | 0.39 | 88 | 1009.2 |
| 20260505150311 | 53 | 8 | 11.0 | 13.0 | 0.00 | 0.39 | 0.39 | 88 | 1009.0 |
| 20260505140241 | 54 | 52 | 5.0 | 7.0 | 0.00 | 0.39 | 0.39 | 90 | 1006.9 |
| 20260505130204 | 55 | 348 | 9.0 | 13.0 | 0.00 | 0.39 | 0.39 | 89 | 1008.0 |
| 20260505124654 | 56 | 350 | 5.0 | 8.0 | 0.00 | 0.39 | 0.39 | 89 | 1007.2 |
| 20260505124151 | 56 | 44 | 6.0 | 8.0 | 0.00 | 0.39 | 0.39 | 89 | 1007.3 |
| 20260505123647 | 56 | 17 | 3.0 | 4.0 | 0.00 | 0.39 | 0.39 | 89 | 1006.9 |
| 20260505123144 | 56 | 27 | 5.0 | 7.0 | 0.00 | 0.39 | 0.39 | 89 | 1007.1 |
| 20260505122640 | 56 | 39 | 4.0 | 4.0 | 0.00 | 0.39 | 0.39 | 89 | 1007.1 |
| 20260505122138 | 57 | 351 | 4.0 | 7.0 | 0.00 | 0.39 | 0.39 | 89 | 1007.1 |
| 20260505121634 | 57 | 28 | 4.0 | 7.0 | 0.00 | 0.39 | 0.39 | 89 | 1006.9 |
| 20260505121131 | 57 | 47 | 2.0 | 3.0 | 0.00 | 0.39 | 0.39 | 88 | 1006.6 |
| 20260505120627 | 57 | 4 | 3.0 | 3.0 | 0.00 | 0.39 | 0.39 | 89 | 1006.5 |
| 20260505120123 | 57 | 59 | 2.0 | 2.0 | 0.00 | 0.39 | 0.39 | 89 | 1006.3 |
| 20260505115618 | 58 | 3 | 3.0 | 4.0 | 0.00 | 0.39 | 0.39 | 89 | 1006.1 |
| 20260505115115 | 58 | 359 | 4.0 | 6.0 | 0.00 | 0.39 | 0.39 | 89 | 1006.2 |
| 20260505114612 | 58 | 24 | 1.0 | 2.0 | 0.00 | 0.39 | 0.39 | 89 | 1006.3 |
| 20260505114109 | 58 | 18 | 8.0 | 10.0 | 0.00 | 0.39 | 0.39 | 89 | 1006.2 |
| 20260505113605 | 59 | 13 | 3.0 | 6.0 | 0.00 | 0.39 | 0.39 | 90 | 1006.5 |
| 20260505113102 | 59 | 17 | 1.0 | 2.0 | 0.00 | 0.39 | 0.39 | 91 | 1006.1 |
| 20260505112558 | 59 | 48 | 3.0 | 4.0 | 0.00 | 0.39 | 0.39 | 91 | 1006.0 |
| 20260505112057 | 59 | 2 | 1.0 | 1.0 | 0.00 | 0.39 | 0.39 | 91 | 1005.7 |
| 20260505111556 | 59 | 21 | 4.0 | 6.0 | 0.00 | 0.39 | 0.39 | 91 | 1005.5 |
| 20260505111052 | 60 | 12 | 2.0 | 3.0 | 0.00 | 0.39 | 0.39 | 92 | 1005.7 |
| 20260505110549 | 60 | 82 | 4.0 | 4.0 | 0.00 | 0.39 | 0.39 | 93 | 1005.8 |
| 20260505102021 | 61 | 21 | 1.0 | 1.0 | 0.00 | 0.39 | 0.39 | 93 | 1005.6 |
| 20260505101520 | 61 | 5 | 4.0 | 6.0 | 0.00 | 0.39 | 0.39 | 93 | 1005.9 |
| 20260505101015 | 61 | 23 | 1.0 | 1.0 | 0.00 | 0.39 | 0.39 | 93 | 1006.0 |
| 20260505100513 | 61 | 21 | 1.0 | 2.0 | 0.00 | 0.39 | 0.39 | 93 | 1006.1 |
| 20260505100010 | 61 | 28 | 0.0 | 1.0 | 0.00 | 0.39 | 0.39 | 93 | 1006.1 |
| 20260505095506 | 61 | 14 | 2.0 | 2.0 | 0.00 | 0.39 | 0.39 | 93 | 1006.6 |
| 20260505095001 | 61 | 16 | 2.0 | 2.0 | 0.07 | 0.39 | 0.39 | 92 | 1006.4 |
| 20260505094459 | 62 | 111 | 2.0 | 3.0 | 0.07 | 0.39 | 0.39 | 92 | 1005.9 |
| 20260505093955 | 62 | 338 | 6.0 | 8.0 | 0.00 | 0.38 | 0.38 | 91 | 1006.0 |
| 20260505093451 | 62 | 25 | 0.0 | 0.0 | 0.00 | 0.38 | 0.38 | 91 | 1005.2 |
| 20260505092949 | 62 | 44 | 1.0 | 2.0 | 0.00 | 0.38 | 0.38 | 91 | 1005.2 |
| 20260505092446 | 62 | 68 | 2.0 | 2.0 | 0.00 | 0.38 | 0.38 | 91 | 1005.3 |
| 20260505091944 | 62 | 108 | 4.0 | 6.0 | 0.00 | 0.38 | 0.38 | 91 | 1005.0 |
| 20260505091441 | 62 | 193 | 5.0 | 7.0 | 0.00 | 0.38 | 0.38 | 92 | 1004.6 |
| 20260505090939 | 62 | 136 | 2.0 | 3.0 | 0.00 | 0.38 | 0.38 | 92 | 1004.5 |
| 20260505090437 | 62 | 218 | 4.0 | 7.0 | 0.00 | 0.38 | 0.38 | 91 | 1004.6 |
| 20260505085934 | 62 | 168 | 4.0 | 4.0 | 0.05 | 0.38 | 0.38 | 92 | 1005.0 |
| 20260505085431 | 62 | 119 | 2.0 | 3.0 | 0.12 | 0.38 | 0.38 | 92 | 1005.1 |
| 20260505084930 | 62 | 176 | 2.0 | 3.0 | 0.07 | 0.37 | 0.37 | 92 | 1005.3 |
| 20260505084428 | 62 | 210 | 2.0 | 3.0 | 0.07 | 0.37 | 0.37 | 92 | 1005.4 |
| 20260505083926 | 62 | 212 | 7.0 | 9.0 | 0.00 | 0.36 | 0.36 | 92 | 1005.3 |
| 20260505083423 | 62 | 173 | 4.0 | 4.0 | 0.00 | 0.36 | 0.36 | 92 | 1005.2 |
| 20260505082919 | 62 | 192 | 5.0 | 7.0 | 0.00 | 0.36 | 0.36 | 92 | 1004.8 |
| 20260505082415 | 62 | 157 | 4.0 | 6.0 | 0.00 | 0.36 | 0.36 | 92 | 1004.4 |
| 20260505081912 | 62 | 90 | 5.0 | 9.0 | 0.00 | 0.36 | 0.36 | 92 | 1004.5 |
| 20260505081408 | 62 | 118 | 5.0 | 7.0 | 0.00 | 0.36 | 0.36 | 93 | 1004.4 |
| 20260505080905 | 62 | 60 | 3.0 | 3.0 | 0.00 | 0.36 | 0.36 | 94 | 1004.4 |
| 20260505080401 | 62 | 211 | 6.0 | 10.0 | 0.00 | 0.36 | 0.36 | 94 | 1004.3 |
| 20260505075857 | 62 | 176 | 7.0 | 9.0 | 0.00 | 0.36 | 0.36 | 94 | 1003.6 |
| 20260505075354 | 62 | 106 | 6.0 | 8.0 | 0.05 | 0.36 | 0.36 | 94 | 1003.6 |
| 20260505074851 | 62 | 189 | 6.0 | 6.0 | 0.05 | 0.36 | 0.36 | 95 | 1004.1 |
| 20260505074348 | 62 | 154 | 10.0 | 15.0 | 0.05 | 0.36 | 0.36 | 95 | 1004.0 |
| 20260505073845 | 62 | 127 | 7.0 | 10.0 | 0.00 | 0.35 | 0.35 | 95 | 1004.7 |
| 20260505073343 | 62 | 142 | 6.0 | 10.0 | 0.00 | 0.35 | 0.35 | 95 | 1004.8 |
| 20260505072840 | 62 | 194 | 5.0 | 7.0 | 0.00 | 0.35 | 0.35 | 95 | 1005.1 |
| 20260505072336 | 62 | 171 | 5.0 | 9.0 | 0.00 | 0.35 | 0.35 | 95 | 1005.4 |
| 20260505071832 | 62 | 79 | 5.0 | 7.0 | 0.07 | 0.35 | 0.35 | 95 | 1006.3 |
| 20260505071329 | 62 | 73 | 2.0 | 3.0 | 0.12 | 0.35 | 0.35 | 94 | 1006.8 |
| 20260505070827 | 62 | 107 | 2.0 | 3.0 | 0.17 | 0.34 | 0.34 | 94 | 1006.6 |
| 20260505070323 | 62 | 247 | 3.0 | 4.0 | 0.38 | 0.33 | 0.33 | 94 | 1007.3 |
| 20260505065818 | 62 | 128 | 4.0 | 7.0 | 0.38 | 0.31 | 0.31 | 93 | 1007.1 |